Time,TemperatureF,DewpointF,PressureIn,WindDirection,WindDirectionDegrees,WindSpeedMPH,WindSpeedGustMPH,Humidity,HourlyPrecipIn,Conditions,Clouds,dailyrainin,SoftwareType,DateUTC
2015-02-27 00:23:00,9.0,4.0,-100.00,NNE,25,2.0,4.0,79,0.00,,,-99.99,,2015-02-27 05:23:00,
2015-02-27 00:53:00,8.0,3.0,-100.00,North,355,1.0,3.0,80,0.00,,,-99.99,,2015-02-27 05:53:00,
2015-02-27 01:22:00,8.0,3.0,-100.00,North,10,1.0,3.0,81,0.00,,,-99.99,,2015-02-27 06:22:00,
2015-02-27 01:53:00,9.0,4.0,-100.00,North,5,1.0,3.0,81,0.00,,,-99.99,,2015-02-27 06:53:00,
2015-02-27 02:23:00,9.0,4.0,-100.00,North,0,1.0,3.0,81,0.00,,,-99.99,,2015-02-27 07:23:00,
2015-02-27 02:32:00,9.0,4.0,-100.00,North,0,1.0,3.0,81,0.00,,,-99.99,,2015-02-27 07:32:00,
2015-02-27 02:52:00,9.0,4.0,-100.00,NNW,335,1.0,3.0,81,0.00,,,-99.99,,2015-02-27 07:52:00,
2015-02-27 03:03:00,9.0,4.0,-100.00,NNW,335,1.0,3.0,81,0.00,,,-99.99,,2015-02-27 08:03:00,
2015-02-27 03:12:00,9.0,4.0,-100.00,NNW,335,1.0,3.0,81,0.00,,,-99.99,,2015-02-27 08:12:00,
2015-02-27 03:52:00,8.0,4.0,-100.00,NW,325,1.0,3.0,83,0.00,,,-99.99,,2015-02-27 08:52:00,
2015-02-27 04:12:00,9.0,5.0,-100.00,North,0,1.0,3.0,83,0.00,,,-99.99,,2015-02-27 09:12:00,
2015-02-27 04:22:00,9.0,5.0,-100.00,North,0,1.0,3.0,83,0.00,,,-99.99,,2015-02-27 09:22:00,
2015-02-27 04:43:00,9.0,5.0,-100.00,NNE,25,0.0,3.0,84,0.00,,,-99.99,,2015-02-27 09:43:00,
2015-02-27 04:53:00,9.0,5.0,-100.00,NNW,330,1.0,3.0,85,0.00,,,-99.99,,2015-02-27 09:53:00,
2015-02-27 05:03:00,9.0,5.0,-100.00,NNW,330,1.0,3.0,85,0.00,,,-99.99,,2015-02-27 10:03:00,
2015-02-27 05:23:00,8.0,5.0,-100.00,NNE,30,1.0,4.0,86,0.00,,,-99.99,,2015-02-27 10:23:00,
2015-02-27 05:52:00,9.0,5.0,-100.00,NNE,15,2.0,5.0,86,0.00,,,-99.99,,2015-02-27 10:52:00,
2015-02-27 06:23:00,9.0,6.0,-100.00,North,355,3.0,6.0,86,0.00,,,-99.99,,2015-02-27 11:23:00,
2015-02-27 06:53:00,8.0,4.0,-100.00,North,355,4.0,7.0,85,0.00,,,-99.99,,2015-02-27 11:53:00,
2015-02-27 07:22:00,7.0,3.0,-100.00,NW,325,4.0,7.0,84,0.00,,,-99.99,,2015-02-27 12:22:00,
2015-02-27 07:53:00,6.0,2.0,-100.00,NNE,15,2.0,5.0,83,0.00,,,-99.99,,2015-02-27 12:53:00,
2015-02-27 08:23:00,6.0,1.0,-100.00,NNE,25,2.0,6.0,78,0.00,,,-99.99,,2015-02-27 13:23:00,
2015-02-27 08:52:00,7.0,1.0,-100.00,North,0,2.0,6.0,75,0.00,,,-99.99,,2015-02-27 13:52:00,